www.pogodaiklimat.ru

Погода и климат >> Архив погоды >> Кука Острова >> Rarotonga


ПОГОДА в Rarotonga

  • Прогноз погоды в Rarotonga
  • Монитор погоды в Rarotonga
  • Климат города

АРХИВ ПОГОДЫ в Rarotonga

Время (UTC), дата Ветер
(напр.,м/с)
 
Видим.   Явления Облачность Т
(С)
Тd
(С)
f
(%)
Тe
(С)
Тes
(С)
Комфортность P
(гПа)
Po
(гПа)
Тmin
(С)
Tmax
(С)
R
(мм)
R24
(мм)
S
(см)
12 15.04 ЮВ 1 20 км 5/3 540 м
[Cu med, cong As op]
+23.8 +19.8 78 +29 +29 душно 1011.3 1011.0 +26.7
15 15.04 Ю 4 20 км 4/3 540 м
[Cu med, cong As trans]
+24.0 +18.5 71 +28 +28 душно 1010.7 1011.0
18 15.04 Ю 3 20 км 9/9 750 м
[Cu Sc]
+24.6 +19.0 71 +30 +30 очень
душно
1012.4 1012.0
21 15.04 В 6 20 км 9/9 700 м
[Sc diur, vesp]
+26.5 +20.8 71 +33 +34 очень
душно
1013.3 1013.0
00 16.04 Ю 7 20 км 8/3 600 м
[Cu med, cong Ac trans]
+27.1 +20.1 66 +33 +35 очень
душно
1011.6 1012.0 +23.1
03 16.04 Ю 4 50 км 4/3 700 м
[Cu med, cong Ci fib]
+26.4 +19.9 67 +32 +33 очень
душно
1010.7 1011.0
06 16.04 ЮВ 4 20 км 4/4 630 м
[Cu med, cong]
+24.4 +19.8 76 +30 +30 очень
душно
1012.1 1012.0
09 16.04 ЮВ 3 20 км 8/8 540 м
[Cu Sc]
+25.1 +19.6 72 +31 +31 очень
душно
1013.5 1014.0
12 16.04 ЮВ 2 20 км 9/9 540 м
[Cu Sc]
+24.5 +20.6 79 +30 +30 очень
душно
1012.5 1013.0 +27.9
15 16.04 СВ 2 20 км 6/6 600 м
[Cu Sc]
+24.8 +20.2 76 +31 +31 очень
душно
1011.9 1012.0
18 16.04 В 3 20 км слабый ливневой дождь 6/6 540 м
[Cu Sc]
+24.1 +20.9 82 +30 +31 очень
душно
1014.0 1014.0
21 16.04 В 6 50 км {ливн. осадки} 8/5 700 м
[Cu med, cong Ac trans]
+26.5 +20.5 70 +33 +34 очень
душно
1014.3 1014.0
03 17.04 ЮВ 5 50 км 4/1 750 м
[Cu med, cong Ac trans]
+26.4 +18.8 63 +31 +32 душно 1012.3 1012.0
06 17.04 ЮВ 6 50 км 3/1 630 м
[Cu hum Ci fib]
+24.5 +18.2 68 +29 +29 душно 1013.7 1014.0
09 17.04 штиль 0 50 км ?/? +22.9 +16.8 68 +28 +28 душно 1014.9 1015.0
12 17.04 В 5 50 км 1/1 700 м
[Cu hum]
+23.8 +16.9 65 +27 +27 жарко 1013.8 1014.0 +29.1
15 17.04 В 5 50 км 1/1 660 м
[Cu hum]
+23.5 +17.1 67 +27 +27 душно 1012.6 1013.0
18 17.04 В 4 50 км 1/1 750 м
[Cu hum]
+24.1 +17.6 67 +28 +29 душно 1013.7 1014.0
21 17.04 В 2 50 км 3/3 750 м
[Cu hum]
+25.1 +18.7 68 +30 +39 душно 1014.2 1014.0
00 18.04 В 6 50 км 3/3 600 м
[Cu hum]
+27.6 +19.2 60 +33 +37 очень
душно
1012.2 1012.0 +21.9
03 18.04 В 5 50 км 5/3 750 м
[Cu med, cong Ac trans]
+26.0 +19.1 66 +31 +32 очень
душно
1012.2 1012.0
06 18.04 ЮВ 4 50 км 4/4 700 м
[Cu med, cong]
+24.5 +19.4 73 +30 +30 очень
душно
1013.5 1014.0
09 18.04 ЮВ 4 50 км 3/3 630 м
[Cu hum]
+24.5 +18.4 69 +29 +29 душно 1014.0 1014.0
12 18.04 В 3 50 км 1/1 660 м
[Cu hum]
+23.6 +17.9 70 +28 +28 душно 1013.6 1014.0 +29.2
15 18.04 В 4 50 км 1/1 660 м
[Cu hum]
+24.0 +17.6 67 +28 +28 душно 1012.6 1013.0
18 18.04 В 4 50 км 1/1 720 м
[Cu hum]
+24.4 +19.3 73 +29 +30 душно 1014.1 1014.0
00 19.04 В 7 50 км 4/4 750 м
[Cu hum]
+27.4 +20.0 64 +34 +36 очень
душно
1012.6 1013.0 +22.5
03 19.04 В 6 20 км 4/4 750 м
[Cu hum Ci fib]
+26.5 +19.8 67 +32 +33 очень
душно
1012.8 1013.0
06 19.04 В 3 20 км 4/4 630 м
[Cu med, cong Ci fib]
+24.8 +19.7 73 +30 +30 душно 1014.6 1015.0
09 19.04 В 4 20 км 3/3 630 м
[Cu med, cong Ci fib]
+24.8 +19.7 73 +30 +30 душно 1015.0 1015.0
12 19.04 В 4 50 км 1/1 700 м
[Cu hum]
+25.0 +19.6 72 +30 +30 душно 1013.9 1014.0 +28.1
15 19.04 В 4 50 км 1/1 660 м
[Cu hum]
+24.0 +17.6 67 +28 +28 душно 1012.6 1013.0
18 19.04 В 3 50 км 1/1 700 м
[Cu med, cong Ci sp]
+25.2 +19.7 72 +31 +32 очень
душно
1014.2 1014.0
21 19.04 В 6 50 км 4/1 700 м
[Cu med, cong Ci sp]
+28.0 +23.4 76 +38 +43 очень
душно
1014.2 1014.0
00 20.04 В 8 50 км 4/4 600 м
[Cu med, cong Ci fib]
+27.5 +20.8 67 +34 +36 очень
душно
1013.4 1013.0 +25.0
03 20.04 В 4 20 км 4/4 700 м
[Cu med, cong Ci fib]
+27.0 +21.0 70 +34 +35 очень
душно
1013.6 1014.0
06 20.04 В 7 20 км 6/4 630 м
[Cu med, cong Ci sp]
+25.5 +20.2 73 +31 +31 очень
душно
1014.1 1014.0
09 20.04 В 6 20 км 3/3 630 м
[Cu hum Ci fib]
+25.6 +20.8 75 +32 +32 очень
душно
1014.9 1015.0
12 20.04 В 6 20 км 3/3 540 м
[Cu med, cong]
+25.5 +21.0 76 +32 +32 очень
душно
1013.9 1014.0 +30.2
15 20.04 В 4 20 км {ливн. осадки} 4/4 540 м
[Cu med, cong]
+25.0 +21.4 80 +32 +32 очень
душно
1013.3 1013.0
18 20.04 В 4 20 км {ливн. осадки} 4/4 540 м
[Cu med, cong]
+25.0 +21.4 80 +32 +32 очень
душно
1013.3 1013.0
21 20.04 СВ 4 50 км 4/4 540 м
[Sc diur, vesp]
+28.5 +22.2 69 +37 +43 очень
душно
1015.3 1015.0
00 21.04 СВ 4 50 км 6/3 700 м
[Cu hum Ci fib]
+28.9 +21.7 65 +37 +42 очень
душно
1013.5 1014.0 +24.4

 

Местоположение метеостанции Rarotonga (Кука Острова): широта -21.20 долгота -159.80 высота над уровнем моря 7 м.

В архиве по умолчанию представлена погода в Rarotonga за последнюю неделю. Архивные данные за месяц целиком и за предыдущие месяцы, начиная с января 2011 года, Вы можете получить, выбрав интересующий диапазон дат из раскрывающегося списка и нажав кнопку "Ввод!".


*Определитесь, кто Вы:
робот инопланетянин человек

Внимание! Время в таблицах - всемирное. Для получения местного времени необходимо прибавить поправку, которая в Rarotonga равна -10 ч.

Смотрите также архив погоды в соседних городах и на ближайших метеорологических станциях:

Погода в Aitutaki (Кука Острова) (264 км)
Погода в Bora-Bora Airport (Французская Полинезия) (1004 км)
Погода в Hanan Airport (Кука Острова) (1080 км)
Погода в Tubuai (Французская Полинезия) (1097 км)
Погода в Tahiti-Faaa (Французская Полинезия) (1144 км)
Погода в Tautira (Французская Полинезия) (1179 км)
Погода в Manihiki (Кука Острова) (1205 км)
Погода в Penrhyn (Кука Острова) (1367 км)
Погода в Le Mafa (Самоа) (1487 км)
Погода в Lufi-Lufi (Самоа) (1488 км)

Пояснения к столбцам:

Ветер - указаны скорость ветра в м/с - средняя за 10 мин, порывы в срок и между сроками (в фигурных скобках) и направление, откуда дует ветер: С - северный, СВ - северо-восточный, В - восточный, ЮВ - юго-восточный, Ю - южный, ЮЗ - юго-западный, З - западный, СЗ - северо-западный.
Видимость - горизонтальная дальность видимости в метрах или километрах. При видимости от 1 до 10 км при отсутствии осадков обычно наблюдается дымка, при ухудшении видимости до 1 км и менее - туман. В сухую погоду видимость может ухудшаться дымом, пылью или мглою.
Явления - указаны атмосферные явления, наблюдавшиеся в срок или в последний час перед сроком; фигурными скобками обозначены явления, наблюдавшиеся между сроками (за 1-3 часа до срока); квадратными скобками обозначены град или гололедные отложения с указанием их диаметра в мм.
Облачность - указаны через наклонную черту общая и нижняя облачность в баллах и высота нижней границы облаков в метрах; квадратными скобками обозначены формы облаков: Ci - перистые, Cs - перисто-слоистые, Cc - перисто-кучевые, Ac - высококучевые, As - высокослоистые, Sc - слоисто-кучевые, Ns - слоисто-дождевые, Cu - кучевые, Cb - кучево-дождевые. Подробнее классификацию облаков см. в Атласе облаков (PDF).
T - Температура воздуха - температура, измеренная на высоте 2 м над землей.
Td - Температура точки росы - температура, при понижении до которой содержащийся в воздухе водяной пар достигнет насыщения.
f - Относительная влажность воздуха - влажноcть воздуха, измеренная на высоте 2 м над землей.
Te - Эффективная температура - температура, которую ощущает одетый по сезону человек в тени. Характеристика душности погоды. При расчете учитывается влияние влажности воздуха и скорости ветра на теплоощущения человека.
Tes - Эффективная температура на солнце - температура, которую ощущает человек, с поправкой на солнечный нагрев. Характеристика знойности погоды. Зависит от высоты солнца над горизонтом, облачности и скорости ветра. Ночью, в пасмурную погоду, а также при ветре 12 м/с и более поправка равна нулю.
P - Атмосферное давление - приведенное к уровню моря атмосферное давление.
Po - Атмосферное давление - измеренное на уровне метеостанции атмосферное давление.
Tmin - Минимальная температура - минимум температуры воздуха на высоте 2 м над землей.
Tmax - Максимальная температура - максимум температуры воздуха на высоте 2 м над землей.
R - Количество осадков - Количество выпавших осадков за период времени, мм. При наведении курсора мыши на число - период времени, за который выпало указанное количество осадков.
R24 - Количество осадков - Количество выпавших осадков за 24 часа, мм.
S - Снежный покров - Высота снежного покрова, см. При наведении курсора мыши на число - состояние снежного покрова и степень покрытия местности в баллах.